Home > Weather > Gävle > Past weeks

Flag for Sweden Past Weather in Gävle, Sweden — Yesterday and Last 2 Weeks

Now
71 °F

Overcast.


Feels Like: 76 °F
Forecast: 59 / 73 °F
Wind: 5 mph from South

Location: Films Kyrkby

Current Time: Jul 1, 2016 at 1:52:24 PM

Latest Report: Jul 1, 2016 at 1:00 PM


Visibility: 19 mi

Pressure: 29.82 "Hg

Humidity: 57%

Dew Point: 55 °F

Location of GävleLocation

Past Weather in Gävle — Graph

°F

Gävle Temperature Yesterday

Maximum temperature yesterday: 70 °F (at 4:00 PM)
Minimum temperature yesterday: 58 °F (at 3:00 AM)
Average temperature yesterday: 64 °F

High & Low Weather Summary for the Past Weeks

 TemperatureHumidityPressure
High83 °F (Jun 25, 6:00 PM)100% (Jun 16, 5:00 PM)30.15 "Hg (Jun 16, 5:00 PM)
Low49 °F (Jun 29, 4:00 AM)38% (Jun 25, 6:00 PM)29.32 "Hg (Jun 18, 5:00 AM)
Average62 °F79%29.84 "Hg
* Reported Jun 16 12:00 PM — Jul 1 12:00 PM, Gävle, Weather by CustomWeather, © 2016

Note: Actual official high and low records may vary slightly from our data, if they occured in-between our weather recording intervals... More about our weather records

Advertising

Gävle Weather History for the Previous 24 Hours

Scroll right to see more
 ConditionsComfort  
Time TempWeatherWind HumidityBarometerVisibility
12:00 PM
Fri, Jul 1
70 °FOvercast.5 mph60%29.83 "Hg22 mi
11:00 AM69 °FOvercast.3 mph62%29.83 "Hg22 mi
10:00 AM65 °FOvercast.2 mph74%29.83 "Hg28 mi
9:00 AM63 °FPartly sunny.2 mph82%29.84 "Hg25 mi
8:00 AM60 °FPartly sunny.2 mph94%29.83 "Hg12 mi
7:00 AM59 °FRain showers. Scattered clouds.No wind94%29.84 "Hg11 mi
6:00 AM60 °FOvercast.1 mph87%29.84 "Hg25 mi
5:00 AM59 °FOvercast.1 mph86%29.84 "Hg28 mi
4:00 AM59 °FOvercast.2 mph84%29.84 "Hg28 mi
3:00 AM60 °FOvercast.2 mph82%29.84 "Hg28 mi
2:00 AM59 °FOvercast.2 mph84%29.83 "Hg31 mi
1:00 AM58 °FOvercast.1 mph84%29.84 "Hg31 mi
12:00 AM59 °FOvercast.2 mph80%29.83 "Hg31 mi
11:00 PM
Thu, Jun 30
60 °FOvercast.1 mph73%29.83 "Hg31 mi
10:00 PM59 °FPassing clouds.1 mph72%29.82 "Hg31 mi
9:00 PM62 °FSunny.2 mph64%29.81 "Hg31 mi
8:00 PM67 °FSunny.3 mph53%29.80 "Hg31 mi
7:00 PM66 °FPassing clouds.2 mph55%29.80 "Hg31 mi
6:00 PM67 °FOvercast.2 mph60%29.80 "Hg25 mi
5:00 PM69 °FOvercast.3 mph53%29.79 "Hg28 mi
4:00 PM70 °FOvercast.2 mph51%29.79 "Hg28 mi
3:00 PM70 °FScattered clouds.2 mph50%29.80 "Hg25 mi
2:00 PM69 °FOvercast.2 mph52%29.80 "Hg31 mi
1:00 PM68 °FOvercast.2 mph53%29.80 "Hg31 mi
Weather by CustomWeather, © 2016

See weather overviewHow to use our weather pages